User: anonymous   Login
Location: Unspecified
(0.0000°N, 0.0000°E)
Time: 05:15:14
(UTC+00:00)
Language:

LES 8 - Orbit

View from above orbital plane
View from above orbital plane
View from above satellite
View from above satellite

Ground track
Ground track

The orbit data is extracted from the following two-line orbital elements,

1 08746U 76023A   18202.38818862 -.00000129  00000-0  00000+0 0  9992
2 08746  16.6491  76.2189 0022733  56.3592 202.9435  1.00269035100714
Epoch (UTC): 21 July 2018 09:18:59
Eccentricity: 0.0022733
inclination: 16.6491°
perigee height: 35691 km
apogee height: 35883 km
right ascension of ascending node: 76.2189°
argument of perigee: 56.3592°
revolutions per day: 1.00269035
mean anomaly at epoch: 202.9435°
orbit number at epoch: 10071

The dashed part of the orbit path shows where the satellite is in the earth's shadow,  

DLR